User: anonymous   Login
Location: State Camp
(41.2367°N, 77.7828°W)
Time: 17:22:32
(UTC-05:00)
Language:

ADEOS Rocket - Orbit

View from above orbital plane
View from above orbital plane
View from above satellite
View from above satellite

Ground track
Ground track

The orbit data is extracted from the following two-line orbital elements,

1 24279U 96046C   14352.59602191  .00000046  00000-0  99862-4 0  7724
2 24279 098.7228 037.0874 0301071 094.8155 066.7444 13.47006653901517
Epoch (UTC): 18 December 2014 14:18:16
Eccentricity: 0.0301071
inclination: 98.7228°
perigee height: 858 km
apogee height: 1308 km
right ascension of ascending node: 37.0874°
argument of perigee: 94.8155°
revolutions per day: 13.47006653
mean anomaly at epoch: 66.7444°
orbit number at epoch: 90151

The dashed part of the orbit path shows where the satellite is in the earth's shadow,  

DLR